This is the latest recevied weather packets stored in our database for station/object WB5HZM-3. If no packets are shown the sender has not sent any weather packets the latest 10 day(s).
| Time | Temp. | Humidity | Pressure | Rain* | Wind** | Luminosity | Snow |
|---|---|---|---|---|---|---|---|
| 1778023969 | 28.33° C | 77% | 1007.6 hPa | 0 mm | - | - | - |
| 1778023370 | 28.33° C | 77% | 1007.5 hPa | 0 mm | - | - | - |
| 1778022766 | 28.33° C | 76% | 1007.6 hPa | 0 mm | - | - | - |
| 1778022162 | 28.33° C | 76% | 1007.6 hPa | 0 mm | - | - | - |
| 1778021562 | 28.33° C | 74% | 1007.6 hPa | 0 mm | - | - | - |
| 1778020958 | 28.89° C | 74% | 1007.5 hPa | 0 mm | - | - | - |
| 1778020375 | 28.89° C | 73% | 1007.6 hPa | 0 mm | - | - | - |
| 1778019771 | 28.89° C | 73% | 1007.5 hPa | 0 mm | - | - | - |
| 1778019169 | 28.89° C | 74% | 1007.5 hPa | 0 mm | - | - | - |
| 1778018564 | 28.89° C | 74% | 1007.6 hPa | 0 mm | - | - | - |
| 1778017961 | 28.89° C | 73% | 1007.6 hPa | 0 mm | - | - | - |
| 1778017360 | 28.89° C | 73% | 1007.8 hPa | 0 mm | - | - | - |
| 1778016774 | 29.44° C | 73% | 1007.8 hPa | 0 mm | - | - | - |
| 1778016170 | 28.89° C | 73% | 1007.9 hPa | 0 mm | - | - | - |
| 1778015571 | 28.89° C | 72% | 1008 hPa | 0 mm | - | - | - |
| 1778014968 | 28.89° C | 74% | 1008.1 hPa | 0 mm | - | - | - |
| 1778014364 | 28.89° C | 74% | 1008.3 hPa | 0 mm | - | - | - |
| 1778013779 | 28.89° C | 75% | 1008.4 hPa | 0 mm | - | - | - |
| 1778013179 | 28.89° C | 74% | 1008.6 hPa | 0 mm | - | - | - |
| 1778012573 | 28.89° C | 74% | 1008.8 hPa | 0 mm | - | - | - |
| 1778011969 | 28.89° C | 73% | 1008.9 hPa | 0 mm | - | - | - |
| 1778011368 | 28.89° C | 74% | 1009 hPa | 0 mm | - | - | - |
| 1778010784 | 28.33° C | 75% | 1009.1 hPa | 0 mm | - | - | - |
| 1778010179 | 28.33° C | 76% | 1009.4 hPa | 0 mm | - | - | - |
| 1778009575 | 27.78° C | 77% | 1009.4 hPa | 0 mm | - | - | - |
* Rain latest hour (hover to see other rain measurements)
** Current wind speed in m/s (hover to see current wind gust speed)